User: anonymous   Login
Location: Unspecified
(0.0000°N, 0.0000°E)
Time: 13:45:53
(UTC+00:00)
Language:

DNEPR OBJECT AF - Orbit

View from above orbital plane
View from above orbital plane
View from above satellite
View from above satellite

Ground track
Ground track

The orbit data is extracted from the following two-line orbital elements,

1 39445U 13066AF  17114.70622516 +.00000873 +00000-0 +11505-3 0  9997
2 39445 097.6379 160.4628 0060164 082.7770 278.0277 14.81278489183257
Epoch (UTC): 24 April 2017 16:56:57
Eccentricity: 0.0060164
inclination: 97.6379°
perigee height: 583 km
apogee height: 667 km
right ascension of ascending node: 160.4628°
argument of perigee: 82.7770°
revolutions per day: 14.81278489
mean anomaly at epoch: 278.0277°
orbit number at epoch: 18325

The dashed part of the orbit path shows where the satellite is in the earth's shadow,  

DLR